Content
SEND FEEDBACK

Daily
Averages
Monthly
Summary
Canada

MONTREAL, QUEBEC


Home > North America > Canada > Quebec
Elevation: 35 meters     Latitude: 45 28N     Longitude: 073 45W

WEATHER
 
SELECT A DAY
Number of Records: 198,715;   Date Range: 1/1/95 - 9/8/14
 
SHARE

PRINT THIS DATA

[ ← Previous Day ]
WEATHER ALMANAC - 8 MARCH, 2013
[ Next Day → ]
[ °F ]   °C
Weather ElementAverageHighLow
Temperature-0.2 °C3 °C (3:00 pm)-4 °C (11:00 pm)
Dewpoint-5.6 °C-4.4 °C (1:00 am)-7 °C (7:00 am)
Humidity66.6 %80 % (3:00 am)52 % (1:00 pm)
Barometer1026.8 hPa1028.4 hPa (8:00 pm)1024.7 hPa (1:00 am)
Wind Speed15 km/h22.2 km/h (10:00 am)
Weather ElementAverage
Visibility30.3 km
Wind DirectionENE (64.4 °)

Weather ElementTotal
Precipitation---
Heating Degree Days18.8 (Base 18.3)
Averaged from 27 records on 8 March, 2013
WEATHER CONDITIONS BREAKOUT
WIND DIRECTION BREAKOUT
WEATHER BY HOUR - 8 MARCH, 2013
[ °F ]   °C
Local TimeTemperatureDewpointHumidityBarometerVisibilityWind DirectionWind SpeedGust SpeedPrecipitationEventsConditions
1:00 AM-1.1 °C-4.4 °C69 %1024.7 hPa24.1 kmNNE (20°)20.4 km/hOvercast
1:00 AM-1 °C-5 °C75 %1024.7 hPa24.1 kmNNE (20°)20.4 km/hOvercast
2:00 AM-1 °C-5 °C75 %1024.7 hPa24.1 kmNorth (10°)18.5 km/hOvercast
3:00 AM-2 °C-5 °C80 %1024.7 hPa24.1 kmNorth (10°)18.5 km/hOvercast
4:00 AM-1 °C-5 °C75 %1025.1 hPa24.1 kmNNE (30°)18.5 km/hOvercast
5:00 AM-1 °C-5 °C75 %1025.4 hPa24.1 kmNNE (20°)20.4 km/hOvercast
6:00 AM-2 °C-6 °C74 %1025.7 hPa24.1 kmNorth (10°)18.5 km/hOvercast
7:00 AM-2.2 °C-6.7 °C63 %1026.1 hPa24.1 kmNorth16.7 km/hOvercast
7:00 AM-2 °C-7 °C69 %1026.1 hPa24.1 kmNorth (360°)16.7 km/hOvercast
8:00 AM-2 °C-6 °C74 %1026.8 hPa24.1 kmNorth (10°)16.7 km/hMostly Cloudy
9:00 AM-1 °C-6 °C69 %1027.1 hPa24.1 kmNNE (20°)20.4 km/hMostly Cloudy
10:00 AM-1 °C-6 °C69 %1027.4 hPa24.1 kmNNE (30°)22.2 km/hScattered Clouds
11:00 AM0 °C-5 °C69 %1027.4 hPa24.1 kmNNE (20°)22.2 km/hScattered Clouds
12:00 PM1 °C-5 °C65 %1027.4 hPa48.3 kmNorth (10°)22.2 km/hScattered Clouds
1:00 PM1.1 °C-5 °C52 %1027.1 hPa45.1 kmNNE (30°)22.2 km/hScattered Clouds
1:00 PM1 °C-5 °C65 %1027.1 hPa48.3 kmNNE (30°)22.2 km/hScattered Clouds
2:00 PM2 °C-5 °C60 %1027.1 hPa48.3 kmNE (40°)18.5 km/hScattered Clouds
3:00 PM3 °C-5 °C56 %1027.1 hPa48.3 kmNNE (30°)11.1 km/hScattered Clouds
4:00 PM3 °C-5 °C56 %1027.1 hPa48.3 kmNNE (30°)11.1 km/hScattered Clouds
5:00 PM3 °C-6 °C52 %1027.4 hPa48.3 kmNNE (20°)7.4 km/hScattered Clouds
6:00 PM3 °C-6 °C52 %1027.8 hPa24.1 kmSW (220°)7.4 km/hPartly Cloudy
7:00 PM0.6 °C-5.6 °C53 %1028.1 hPa24.1 kmWSW (250°)11.1 km/hClear
7:00 PM0 °C-5 °C69 %1028.1 hPa24.1 kmWSW (250°)9.3 km/hClear
8:00 PM-1 °C-6 °C69 %1028.4 hPa24.1 kmWest (270°)11.1 km/hClear
9:00 PM0 °C-6 °C64 %1028.4 hPa24.1 kmCalmClear
10:00 PM-1 °C-6 °C69 %1028.4 hPa24.1 kmCalmClear
11:00 PM-4 °C-7 °C80 %1028.4 hPa24.1 kmCalmClear
Hourly data recorded from CYUL, located 0 kilometers away from Montreal, Quebec







STORIES FROM OUR PARTNERS